A/2025 A7

Japanese version
Home page
Updated on March 23, 2026

---------------------------------------------------------------------

* Profile

Discovery Date January 6, 2025
Magnitude 20.40 mag
Discoverer Mt. Lemmon Survey

* Orbital Elements

Epoch 2025 May 5.0 TT = JDT 2460800.5
T 2025 Mar. 28.10243 TT                                 Pike
q   2.8834282            (2000.0)            P               Q
z  +0.0002374      Peri.  195.56540     -0.90928534     +0.39191859
 +/-0.0000058      Node   348.84394     +0.41496272     +0.82816231
e   0.9993156      Incl.  133.64905     -0.03171918     -0.40068317
H    14.
From 268 observations 2024 Dec. 2-2025 Apr. 19, mean residual 0".4.

* Magnitudes Graph

        H = 14.9  G = 0.15

---------------------------------------------------------------------

The orbital elements are published on M.P.E.C. 2025-H115.
The magnitudes graphs are made with Comet for Windows.

---------------------------------------------------------------------

Copyright(C) Seiichi Yoshida (comet@aerith.net). All rights reserved.